{"data":{"norad_id":48373,"intl_designator":"2021-038W","name":"STARLINK-2609","alt_names":[],"object_type":"PAYLOAD","status":"ACTIVE","operator":null,"country":"US","launch_date":"2021-05-04","launch_site_code":"AFETR","launch_vehicle":null,"mission":null,"orbit_class":"UNKNOWN","rcs_meters":null,"size_class":null,"mass_kg":null,"dimensions":null,"purposes":["comms"],"wikipedia_slug":null,"has_3d_model":false,"image_url":null,"decayed_at":null,"tle_current":{"epoch":"2026-05-24T20:12:22.801248Z","epoch_age_seconds":82693,"freshness":"FRESH","line1":"1 48373U 21038W   26144.84193057  .00003432  00000+0  12226-3 0  9990","line2":"2 48373  53.1605 351.3021 0001183  76.5774 283.5359 15.31709497278920","mean_motion":15.31709497,"eccentricity":0.0001183,"inclination_deg":53.1605,"raan_deg":351.3021,"arg_perigee_deg":76.5774,"mean_anomaly_deg":283.5359,"bstar":0.00012226,"rev_number":27892,"period_min":94.012605054704,"perigee_km":469.90146650963,"apogee_km":471.52190410858,"semimajor_km":6848.8486853091,"source":"CELESTRAK","updated_at":"2026-05-25T13:38:16.687867Z"}}}